Regional Weather Roundup
Issued by NWS Cleveland, OH

Home | Current Version | Previous Version | Text Only | Print | Product List | Glossary Off
Versions: 1 2 3 4 5 6 7 8 9 10 11 12 13 14 15 16 17 18 19 20 21 22 23 24 25 26 27 28 29 30 31 32 33 34 35 36 37 38 39 40 41 42 43 44 45 46 47 48 49 50

000
ASUS41 KCLE 190210
RWRCLE
OHIO REGIONAL WEATHER ROUNDUP
NATIONAL WEATHER SERVICE CLEVELAND, OH
900 PM EST SAT NOV 18 2017

NOTE: "FAIR" INDICATES FEW OR NO CLOUDS BELOW 12,000 FEET WITH NO
SIGNIFICANT WEATHER AND/OR OBSTRUCTIONS TO VISIBILITY.

OHZ001>008-015>018-024>027-034-035-043-044-190300-
   NORTHWEST OHIO

CITY           SKY/WX    TMP DP  RH WIND       PRES   REMARKS
DEFIANCE       LGT RAIN  37  33  85 NW14G24   29.49R
FINDLAY        LGT RAIN  38  34  85 NW18G30   29.41R
TOLEDO EXPRESS LGT SNOW  36  35  96 NW14G25   29.44R FOG
TOLEDO EXEC    LGT RAIN  37  34  89 NW17G25   29.43R
LIMA           NOT AVBL
$$

OHZ009>014-019>023-028>033-038-089-190300-
   NORTHEAST OHIO

CITY           SKY/WX    TMP DP  RH WIND       PRES   REMARKS
CLE-HOPKINS    LGT RAIN  46  44  93 NW21G33   29.25R FOG
CLE-LAKEFRONT  CLOUDY    47  44  90 NW24G31   29.21R
CUY CO. ARPT   DRIZZLE   48  46  93 N15G24    29.19R FOG
LORAIN-ELYRIA  LGT RAIN  43  38  82 N21G32    29.26R
ASHTABULA      CLOUDY    53  53 100 SW8       29.13F FOG
AKRON-CANTON   LGT RAIN  57  53  86 SW15      29.16F FOG
WOOSTER        LGT RAIN  46  45  96 NW21G26   29.22R FOG
MANSFIELD      CLOUDY    43  42  97 NW23G31   29.26R
YOUNGSTOWN     LGT RAIN  56  53  90 SW13      29.15F
$$

OHZ042-051>053-060>062-070>072-077>081-190300-
  SOUTHWEST OHIO

CITY           SKY/WX    TMP DP  RH WIND       PRES   REMARKS
CINC-COVINGTON CLOUDY    44  42  93 NW25G36   29.49R
CINC-LUNKEN    LGT RAIN  45  42  89 NW10G21   29.50R
HAMILTON       CLOUDY    45  42  89 NW16G28   29.50R
DAYTON         LGT RAIN  41  41 100 NW23G35   29.44R
WRIGHT-PAT AFB LGT RAIN  43  43 100 NW21G35   29.43R
DAYTON GENERAL LGT RAIN  43  40  89 NW18G33   29.44R
WILMINGTON     CLOUDY    45  43  93 NW26G39   29.39R
$$

OHZ036-037-039>041-045>050-054>059-063>069-073>076-082>088-190300-
  CENTRAL AND SOUTHEAST OHIO

CITY           SKY/WX    TMP DP  RH WIND       PRES   REMARKS
COLUMBUS       LGT RAIN  47  47 100 NW18G31   29.29R
OSU AIRPORT    LGT RAIN  46  45  96 NW18G25   29.33R
BOLTON FIELD   LGT RAIN  46  44  94 NW18G28   29.32R
RICKENBACK AFB LGT RAIN  46  46 100 NW22G29   29.29R
NEWARK         LGT RAIN  51  48  89 NW16G33   29.23R FOG
MARION         LGT RAIN  44  41  89 NW21G36   29.34R FOG
LANCASTER      CLOUDY    50  49  96 NW20G37   29.27R FOG
ZANESVILLE     LGT RAIN  60  55  83 S17G26    29.19F
NEW PHILLY     NOT AVBL
$$




USA.gov is the U.S. government's official web portal to all federal, state and local government web resources and services.